[[[{"header":{"parameterUnit":"kt","parameterCategory":2,"dx":1,"dy":1,"la1":30.253999710083008,"la2":30.299108505249023,"lo1":-89.0895004272461,"lo2":-89.04439544677734,"nx":28,"ny":28,"refTime":"2022-09-29T21:00:00:Z","depth":"0","parameterNumber":2,"parameterNumberName":"U-component_of_CURRENTS"},"data":[-0.3816,-0.3739,-0.3732,-0.3631,-0.3643,-0.3521,-0.3503,-0.3618,-0.3877,-0.4363,-0.4876,-0.54,-0.5576,-0.5946,-0.5708,-0.5398,-0.5115,-0.5003,-0.4855,-0.5064,-0.5065,-0.5067,-0.5047,-0.5054,-0.5054,-0.4469,-0.4466,-0.4463,-0.3901,-0.3886,-0.3917,-0.3939,-0.3924,-0.4014,-0.4096,-0.4087,-0.4232,-0.4687,-0.4962,-0.547,-0.5536,-0.5602,-0.56,-0.5401,-0.5142,-0.518,-0.503,-0.4885,-0.5138,-0.5122,-0.5145,-0.5145,-0.5145,-0.5145,-0.5145,-0.5145,-0.4073,-0.405,-0.409,-0.4126,-0.4196,-0.4224,-0.4202,-0.4396,-0.455,-0.4811,-0.5086,-0.5375,-0.5542,-0.5613,-0.5533,-0.5398,-0.5296,-0.5214,-0.5226,-0.5147,-0.4986,-0.5252,-0.5316,-0.5316,-0.5316,-0.5317,-0.5317,0,-0.4169,-0.419,-0.4235,-0.4296,-0.4344,-0.4401,-0.449,-0.4563,-0.4768,-0.4946,-0.517,-0.5306,-0.5492,-0.5538,-0.5548,-0.5465,-0.5215,-0.5309,-0.5262,-0.5131,-0.5036,-0.4863,-0.5097,-0.5182,-0.5182,-0.5182,-0.5182,-0.5181,-0.4218,-0.4261,-0.4366,-0.4401,-0.4442,-0.4509,-0.4563,-0.4715,-0.4804,-0.5066,-0.5124,-0.5282,-0.5397,-0.5467,-0.5444,-0.5417,-0.5259,-0.5302,-0.5205,-0.5157,-0.514,-0.5053,-0.4913,-0.5177,-0.5178,-0.5178,-0.5179,0,-0.4206,-0.4315,-0.4401,-0.4514,-0.4544,-0.4578,-0.4703,-0.4769,-0.491,-0.5039,-0.507,-0.5232,-0.5303,-0.5313,-0.5312,-0.5258,-0.5193,-0.5238,-0.5202,-0.5181,-0.5115,-0.5114,-0.5114,-0.4961,-0.5241,-0.5242,-0.5243,0,-0.4227,-0.4302,-0.4413,-0.4472,-0.4541,-0.465,-0.4733,-0.481,-0.4939,-0.5032,-0.51,-0.5177,-0.5165,-0.5211,-0.5156,-0.5165,-0.517,-0.5101,-0.5083,-0.5041,-0.5038,-0.4984,-0.4976,-0.507,-0.5069,-0.5069,-0.5068,0,-0.4172,-0.4339,-0.4434,-0.449,-0.4646,-0.4678,-0.4738,-0.4855,-0.4928,-0.5025,-0.5082,-0.5112,-0.5133,-0.5111,-0.5095,-0.5045,-0.5128,-0.5045,-0.505,-0.505,-0.5012,-0.5006,-0.5063,-0.5068,-0.5068,-0.5068,-0.5068,0,-0.4201,-0.429,-0.4425,-0.4563,-0.46,-0.4659,-0.4771,-0.485,-0.4951,-0.498,-0.5014,-0.5017,-0.5053,-0.4989,-0.501,-0.4984,-0.4956,-0.4942,-0.4942,-0.4952,-0.4884,-0.4884,-0.4988,-0.4939,-0.491,-0.4909,-0.4908,0,-0.4136,-0.4286,-0.4364,-0.449,-0.4575,-0.464,-0.4717,-0.4789,-0.4835,-0.4895,-0.4891,-0.4923,-0.487,-0.4866,-0.4882,-0.4872,-0.4891,-0.4853,-0.4833,-0.4834,-0.4847,-0.4957,-0.4922,-0.4969,-0.4894,-0.4895,-0.4896,0,-0.4095,-0.427,-0.429,-0.435,-0.448,-0.4529,-0.4617,-0.4702,-0.475,-0.4772,-0.4824,-0.4837,-0.4812,-0.4814,-0.4787,-0.4805,-0.4863,-0.4759,-0.4757,-0.4769,-0.49,-0.4931,-0.4943,-0.4831,-0.4833,-0.4835,-0.4885,0,-0.4144,-0.4222,-0.426,-0.4371,-0.4427,-0.4498,-0.457,-0.4607,-0.4613,-0.4643,-0.4681,-0.4665,-0.4673,-0.4678,-0.4656,-0.4716,-0.4691,-0.4655,-0.4606,-0.4679,-0.4689,-0.4699,-0.4562,-0.4561,-0.4559,-0.4558,0,0,-0.4077,-0.4167,-0.4211,-0.429,-0.434,-0.4375,-0.4448,-0.4484,-0.4531,-0.4546,-0.4513,-0.4541,-0.4524,-0.4569,-0.4592,-0.4581,-0.4578,-0.4562,-0.4642,-0.4651,-0.466,-0.4674,-0.4685,-0.4556,-0.4555,-0.4555,-0.4554,0,-0.4103,-0.4138,-0.419,-0.4251,-0.4328,-0.4364,-0.4385,-0.4446,-0.4454,-0.4497,-0.4466,-0.4473,-0.4478,-0.4482,-0.4482,-0.4557,-0.4517,-0.4553,-0.4613,-0.4629,-0.464,-0.465,-0.4667,-0.4677,-0.4551,-0.4551,-0.4552,0,-0.4088,-0.4141,-0.4162,-0.4251,-0.4285,-0.4356,-0.4332,-0.4384,-0.4429,-0.437,-0.44,-0.4384,-0.4372,-0.4402,-0.4409,-0.4381,-0.4458,-0.4425,-0.4433,-0.4446,-0.446,-0.4473,-0.4485,-0.433,-0.4329,-0.4329,0,0,-0.4102,-0.4146,-0.4223,-0.426,-0.4292,-0.4327,-0.4349,-0.4362,-0.4379,-0.4375,-0.4359,-0.4346,-0.4354,-0.4348,-0.4352,-0.4378,-0.4371,-0.44,-0.441,-0.4419,-0.4437,-0.4453,-0.4466,-0.4326,-0.4326,-0.4326,0,0,-0.41,-0.4186,-0.4191,-0.4245,-0.4298,-0.4347,-0.4361,-0.4366,-0.4365,-0.4349,-0.4314,-0.4307,-0.4328,-0.4308,-0.4282,-0.4334,-0.429,-0.4295,-0.4346,-0.4358,-0.4368,-0.4388,-0.4229,0,0,0,0,0,-0.4152,-0.4185,-0.419,-0.4206,-0.4281,-0.4353,-0.436,-0.4358,-0.433,-0.4348,-0.4324,-0.4288,-0.4291,-0.4267,-0.4265,-0.4297,-0.4297,-0.4302,-0.4307,-0.4379,-0.4393,-0.4404,0,0,0,0,0,0,-0.4159,-0.4179,-0.419,-0.4243,-0.4261,-0.4351,-0.4309,-0.4309,-0.4328,-0.4322,-0.4295,-0.4287,-0.4261,-0.4265,-0.4264,-0.4295,-0.4229,-0.4299,-0.4304,-0.4308,-0.4384,-0.4395,-0.4405,0,0,0,0,0,-0.4164,-0.418,-0.4301,-0.4242,-0.4257,-0.4273,-0.4306,-0.4306,-0.431,-0.4294,-0.4286,-0.4307,-0.4264,-0.4259,-0.4264,-0.4297,-0.423,-0.423,-0.4302,-0.4306,-0.4309,-0.4389,0,0,0,0,0,0,-0.4168,-0.4167,-0.4303,-0.4307,-0.422,-0.4266,-0.4273,-0.4303,-0.4279,-0.4275,-0.4304,-0.4299,-0.4266,-0.4262,-0.4259,-0.43,-0.423,-0.423,-0.423,-0.4305,-0.4307,-0.431,0,0,0,0,0,0,-0.4159,-0.4171,-0.4305,-0.4277,-0.4278,-0.426,-0.4267,-0.4272,-0.4276,-0.4286,-0.4284,-0.4302,-0.4253,-0.4264,-0.4261,-0.4271,-0.4231,-0.423,-0.423,-0.423,-0.4307,-0.4309,0,0,0,0,0,0,-0.4164,-0.4174,-0.4275,-0.4276,-0.4277,-0.4319,-0.4261,-0.4321,-0.4302,-0.4285,-0.4296,-0.4293,-0.4255,-0.4253,-0.4264,-0.4275,-0.4272,-0.4231,-0.423,-0.423,-0.423,0,0,0,0,0,0,0,-0.4168,-0.4104,-0.4285,-0.4275,-0.4275,-0.4349,-0.435,-0.435,-0.4301,-0.4299,-0.4296,-0.4294,-0.4232,-0.4232,-0.4231,-0.4278,0,0,-0.4231,-0.423,0,0,0,0,0,0,0,0,-0.4099,-0.4103,-0.4286,-0.4287,-0.4288,-0.4349,-0.435,-0.435,-0.4301,-0.4299,-0.4297,-0.4295,-0.4232,-0.4232,-0.4232,0,0,0,0,0,0,0,0,0,0,0,0,0,0,0,-0.4286,-0.4287,0,-0.4349,-0.435,-0.435,-0.43,-0.4299,-0.4297,-0.4296,-0.4232,-0.4232,-0.4232,0,0,0,0,0,0,0,0,0,0,0,0,0,0,0,0,0,0,0,0,0,0,0,0,0,0,0,0,0,0,0,0,0,0,0,0,0,0,0,0,0,0,0,0,0,0,0,0,0,0,0,0,0,0,0,0,0,0,0,0,0,0,0,0,0,0,0,0,0]}],[{"header":{"parameterUnit":"kt","parameterCategory":2,"dx":1,"dy":1,"la1":30.253999710083008,"la2":30.299108505249023,"lo1":-89.0895004272461,"lo2":-89.04439544677734,"nx":28,"ny":28,"refTime":"2022-09-29T21:00:00:Z","depth":"0","parameterNumber":3,"parameterNumberName":"V-component_of_CURRENTS"},"data":[-0.221,-0.2384,-0.2478,-0.2712,-0.2794,-0.2884,-0.2911,-0.301,-0.2953,-0.2752,-0.2277,-0.1876,-0.0291,0.1852,0.2947,0.2962,0.3212,0.3214,0.3316,0.2798,0.273,0.2665,0.2728,0.3326,0.3328,0.3992,0.4,0.4006,-0.2138,-0.2241,-0.2395,-0.2531,-0.2644,-0.2605,-0.2636,-0.2692,-0.2752,-0.2635,-0.2498,-0.1476,-0.0541,0.0383,0.1605,0.2007,0.204,0.2196,0.237,0.2367,0.1593,0.1621,0.1993,0.1993,0.1993,0.1993,0.1992,0.1992,-0.2026,-0.2117,-0.222,-0.2338,-0.24,-0.245,-0.2486,-0.2479,-0.2479,-0.2413,-0.214,-0.1852,-0.0898,0.0002,0.0342,0.1163,0.1086,0.1358,0.1517,0.161,0.1721,0.0851,0.1083,0.1082,0.1081,0.1081,0.108,0,-0.1922,-0.1941,-0.2007,-0.214,-0.2177,-0.22,-0.2185,-0.2202,-0.2048,-0.2004,-0.1873,-0.1697,-0.1084,-0.0554,0.0076,0.0342,0.0841,0.0667,0.0958,0.1242,0.1404,0.1497,0.0542,0.0717,0.0714,0.0712,0.071,0.0709,-0.1769,-0.1835,-0.1876,-0.1932,-0.1919,-0.1932,-0.1938,-0.1804,-0.1797,-0.1605,-0.1601,-0.1311,-0.1123,-0.0576,-0.0132,0.0282,0.0504,0.0585,0.0568,0.0858,0.1057,0.1176,0.1225,0.0676,0.068,0.0683,0.0686,0,-0.168,-0.1677,-0.1752,-0.1728,-0.1708,-0.1741,-0.1664,-0.167,-0.1541,-0.1503,-0.1464,-0.12,-0.0934,-0.0615,-0.0315,-0.0103,0.0353,0.0259,0.0294,0.0344,0.079,0.0939,0.1379,0.147,0.0494,0.0498,0.0501,0,-0.1526,-0.1566,-0.1546,-0.1585,-0.1624,-0.1522,-0.1528,-0.1443,-0.134,-0.1317,-0.1104,-0.1043,-0.0757,-0.056,-0.0359,-0.0069,-0.0116,0.011,0.0157,0.0188,0.02,0.0505,0.0663,0.0025,0.0024,0.0023,0.0022,0,-0.1396,-0.1404,-0.1469,-0.1459,-0.1405,-0.1385,-0.1332,-0.1216,-0.1182,-0.1048,-0.1008,-0.0832,-0.0752,-0.0577,-0.0336,-0.0351,-0.0103,-0.0107,0.0097,0.0106,0.0216,0.0233,0.0568,0.0021,0.002,0.002,0.0019,0,-0.1248,-0.1281,-0.1348,-0.1315,-0.1305,-0.1282,-0.1203,-0.1155,-0.102,-0.0953,-0.0844,-0.0732,-0.0611,-0.0552,-0.0344,-0.0386,-0.0272,-0.0177,-0.0169,-0.0031,0.0009,0.0184,0.0232,0.0521,-0.0067,-0.0069,-0.007,0,-0.1148,-0.1218,-0.1154,-0.118,-0.1204,-0.1077,-0.1045,-0.0958,-0.0868,-0.08,-0.0674,-0.0611,-0.0523,-0.0493,-0.0421,-0.03,-0.0243,-0.0305,-0.012,-0.0114,-0.0018,0.0,0.006,0.0202,-0.0086,-0.0084,-0.0083,0,-0.1065,-0.1049,-0.1051,-0.1058,-0.0972,-0.0948,-0.0903,-0.0829,-0.0805,-0.0698,-0.0657,-0.0553,-0.0486,-0.0441,-0.0369,-0.0316,-0.0265,-0.0266,-0.0261,-0.0206,-0.014,-0.0035,-0.0013,-0.0244,-0.0243,-0.0242,-0.0096,0,-0.0966,-0.0973,-0.0984,-0.0953,-0.0912,-0.0903,-0.0804,-0.076,-0.0691,-0.062,-0.0548,-0.0451,-0.0376,-0.0355,-0.0302,-0.0268,-0.0233,-0.0215,-0.0178,-0.0205,-0.0137,-0.0127,-0.0219,-0.0218,-0.0216,-0.0215,0,0,-0.0886,-0.0902,-0.0833,-0.0839,-0.0812,-0.0703,-0.0711,-0.0649,-0.0552,-0.0519,-0.0487,-0.0358,-0.0299,-0.0247,-0.025,-0.0224,-0.0179,-0.0215,-0.0201,-0.0199,-0.0198,-0.0135,-0.0127,-0.0213,-0.0212,-0.0212,-0.0212,0,-0.0846,-0.0808,-0.0835,-0.0792,-0.0732,-0.0671,-0.0668,-0.0578,-0.0534,-0.0483,-0.0409,-0.0355,-0.0277,-0.0223,-0.0188,-0.0208,-0.014,-0.0202,-0.0243,-0.0191,-0.0192,-0.0192,-0.0131,-0.0125,-0.0208,-0.0208,-0.0209,0,-0.0775,-0.0743,-0.0744,-0.0689,-0.064,-0.0619,-0.0544,-0.0512,-0.0488,-0.0388,-0.0344,-0.0282,-0.0209,-0.0175,-0.0157,-0.0141,-0.01,-0.0124,-0.013,-0.0121,-0.0065,-0.0066,-0.0068,-0.0046,-0.0046,-0.0045,0,0,-0.0745,-0.0748,-0.0669,-0.0672,-0.0649,-0.0563,-0.0535,-0.0487,-0.0421,-0.0393,-0.0324,-0.0262,-0.0211,-0.0183,-0.0131,-0.0105,-0.0053,-0.0107,-0.0115,-0.0121,-0.0117,-0.0062,-0.0064,-0.0045,-0.0045,-0.0045,0,0,-0.0722,-0.0661,-0.0629,-0.0632,-0.0574,-0.0482,-0.0476,-0.0425,-0.0365,-0.036,-0.0272,-0.0252,-0.0215,-0.0172,-0.0169,-0.0128,-0.0093,-0.0092,-0.016,-0.0169,-0.0176,-0.0182,-0.0112,0,0,0,0,0,-0.0649,-0.0672,-0.0644,-0.0634,-0.0552,-0.0498,-0.0483,-0.0415,-0.0387,-0.0382,-0.0313,-0.0273,-0.0155,-0.015,-0.0134,-0.0147,-0.0034,-0.0036,-0.0037,-0.0118,-0.0128,-0.0136,0,0,0,0,0,0,-0.0644,-0.0634,-0.0643,-0.0558,-0.0538,-0.0497,-0.0442,-0.0423,-0.0387,-0.0378,-0.0286,-0.0271,-0.0213,-0.0155,-0.0141,-0.0155,-0.0116,-0.0034,-0.0036,-0.0038,-0.0121,-0.0129,-0.0136,0,0,0,0,0,-0.064,-0.0632,-0.0527,-0.0556,-0.0539,-0.045,-0.0442,-0.0425,-0.0393,-0.0304,-0.0287,-0.0346,-0.0215,-0.0198,-0.0146,-0.0163,-0.0125,-0.0121,-0.0036,-0.0037,-0.0038,-0.0125,0,0,0,0,0,0,-0.0637,-0.0605,-0.0521,-0.0512,-0.0554,-0.0451,-0.0436,-0.0428,-0.0319,-0.0303,-0.036,-0.0355,-0.0216,-0.0203,-0.0191,-0.017,-0.0133,-0.0128,-0.0125,-0.0037,-0.0038,-0.0038,0,0,0,0,0,0,-0.0609,-0.0598,-0.0516,-0.0518,-0.0509,-0.0451,-0.0438,-0.0389,-0.0319,-0.0381,-0.0373,-0.036,-0.0237,-0.0206,-0.0196,-0.0122,-0.0139,-0.0134,-0.0131,-0.0128,-0.0037,-0.0038,0,0,0,0,0,0,-0.0602,-0.0593,-0.052,-0.0513,-0.0504,-0.0393,-0.0405,-0.0327,-0.032,-0.0387,-0.0318,-0.0317,-0.0242,-0.023,-0.0201,-0.0131,-0.0124,-0.0139,-0.0135,-0.0133,-0.0131,0,0,0,0,0,0,0,-0.0597,-0.0687,-0.0579,-0.0508,-0.05,-0.0426,-0.0424,-0.0421,-0.032,-0.0319,-0.0319,-0.0318,-0.0166,-0.0161,-0.0156,-0.0138,0,0,-0.0139,-0.0137,0,0,0,0,0,0,0,0,-0.0688,-0.0687,-0.0579,-0.0577,-0.0575,-0.0426,-0.0424,-0.0421,-0.032,-0.0319,-0.0319,-0.0318,-0.0165,-0.0161,-0.0156,0,0,0,0,0,0,0,0,0,0,0,0,0,0,0,-0.0579,-0.0577,0,-0.0426,-0.0424,-0.0422,-0.032,-0.0319,-0.0319,-0.0318,-0.0164,-0.016,-0.0157,0,0,0,0,0,0,0,0,0,0,0,0,0,0,0,0,0,0,0,0,0,0,0,0,0,0,0,0,0,0,0,0,0,0,0,0,0,0,0,0,0,0,0,0,0,0,0,0,0,0,0,0,0,0,0,0,0,0,0,0,0,0,0,0,0,0,0,0,0]}]],[[{"header":{"parameterUnit":"kt","parameterCategory":2,"dx":1,"dy":1,"la1":30.253999710083008,"la2":30.299108505249023,"lo1":-89.0895004272461,"lo2":-89.04439544677734,"nx":28,"ny":28,"refTime":"2022-09-29T21:00:00:Z","depth":"2","parameterNumber":2,"parameterNumberName":"U-component_of_CURRENTS"},"data":[-0.3717,-0.3633,-0.3621,-0.3509,-0.3528,-0.3382,-0.3358,-0.3371,-0.347,-0.3524,-0.3614,-0.4015,-0.4083,-0.3476,-0.331,-0.3007,-0.3108,-0.2863,-0.3982,-0.373,-0.3773,-0.3855,-0.3726,0,0,0,0,0,-0.3803,-0.3791,-0.3821,-0.3834,-0.3806,-0.3901,-0.3972,-0.391,-0.4008,-0.4274,-0.4461,-0.4158,-0.4119,-0.4078,-0.3741,-0.3718,-0.3553,-0.351,-0.3243,-0.33,-0.3349,-0.3218,-0.2802,-0.2798,-0.2793,-0.2789,0,0,-0.3975,-0.395,-0.3983,-0.4016,-0.4082,-0.4101,-0.4075,-0.4239,-0.4377,-0.4551,-0.4837,-0.4915,-0.4901,-0.4729,-0.4532,-0.4332,-0.4637,-0.4347,-0.4354,-0.437,-0.4303,-0.4261,-0.417,-0.4175,-0.4179,-0.4184,-0.4187,0,-0.406,-0.4078,-0.412,-0.4176,-0.4221,-0.4272,-0.4357,-0.4427,-0.4627,-0.4797,-0.5013,-0.5136,-0.525,-0.5064,-0.5047,-0.4932,-0.4756,-0.4672,-0.5197,-0.4237,-0.4184,-0.415,-0.4167,-0.4093,-0.4098,-0.4102,-0.4104,-0.4106,-0.41,-0.4141,-0.4237,-0.4271,-0.4311,-0.4377,-0.4429,-0.4578,-0.4665,-0.4925,-0.4981,-0.5139,-0.5241,-0.5314,-0.522,-0.5177,-0.5203,-0.4778,-0.4631,-0.5062,-0.5033,-0.5022,-0.5012,-0.416,-0.4154,-0.4148,-0.4143,0,-0.4082,-0.4184,-0.4269,-0.4377,-0.4404,-0.4439,-0.4563,-0.4629,-0.4771,-0.49,-0.4933,-0.5094,-0.5166,-0.5181,-0.5186,-0.5134,-0.5124,-0.5117,-0.4703,-0.4639,-0.5009,-0.5,-0.5111,-0.5113,-0.5114,-0.5115,-0.5116,0,-0.4097,-0.417,-0.4274,-0.4333,-0.4399,-0.4508,-0.4592,-0.467,-0.4799,-0.4892,-0.4963,-0.5041,-0.5036,-0.5085,-0.5034,-0.5044,-0.5053,-0.4983,-0.4966,-0.4595,-0.4565,-0.4861,-0.4849,-0.496,-0.496,-0.4959,-0.4959,0,-0.4044,-0.4203,-0.4295,-0.4349,-0.4501,-0.4535,-0.4595,-0.4713,-0.4785,-0.4886,-0.4944,-0.4979,-0.5004,-0.4987,-0.4975,-0.4928,-0.5012,-0.4932,-0.4934,-0.4934,-0.4575,-0.4542,-0.4959,-0.4959,-0.4958,-0.4958,-0.4958,0,-0.4072,-0.4155,-0.4286,-0.442,-0.4457,-0.4515,-0.4627,-0.4706,-0.4808,-0.4839,-0.4878,-0.4885,-0.4925,-0.4865,-0.4892,-0.4865,-0.4841,-0.4829,-0.4829,-0.4834,-0.4767,-0.4423,-0.4443,-0.48,-0.4799,-0.4798,-0.4797,0,-0.401,-0.4153,-0.4228,-0.435,-0.4432,-0.4497,-0.4574,-0.4646,-0.4694,-0.4756,-0.4756,-0.4792,-0.4744,-0.4744,-0.4762,-0.4756,-0.4777,-0.4738,-0.4723,-0.4723,-0.473,-0.4838,-0.4425,-0.4439,-0.4782,-0.4783,-0.4784,0,-0.397,-0.4138,-0.4157,-0.4215,-0.4342,-0.439,-0.4477,-0.4561,-0.461,-0.4635,-0.4689,-0.4708,-0.4688,-0.4692,-0.467,-0.4689,-0.4748,-0.4646,-0.4644,-0.4655,-0.4788,-0.4812,-0.4824,-0.4719,-0.4721,-0.4723,-0.4773,0,-0.4017,-0.4092,-0.4129,-0.4235,-0.429,-0.4359,-0.443,-0.4468,-0.4477,-0.4507,-0.455,-0.4539,-0.4552,-0.4559,-0.4539,-0.4602,-0.4579,-0.4544,-0.4496,-0.4568,-0.4579,-0.4589,-0.4452,-0.445,-0.4449,-0.4448,0,0,-0.3953,-0.4038,-0.4081,-0.4156,-0.4205,-0.424,-0.4311,-0.4347,-0.4396,-0.4412,-0.4383,-0.4418,-0.4405,-0.4453,-0.4477,-0.4468,-0.4466,-0.4451,-0.4532,-0.4541,-0.455,-0.4564,-0.4575,-0.4446,-0.4445,-0.4445,-0.4444,0,-0.3976,-0.401,-0.4059,-0.4119,-0.4194,-0.4229,-0.4249,-0.431,-0.432,-0.4365,-0.4338,-0.4349,-0.436,-0.4366,-0.4369,-0.4444,-0.4408,-0.4442,-0.4502,-0.452,-0.4531,-0.454,-0.4557,-0.4567,-0.4441,-0.4441,-0.4442,0,-0.396,-0.4011,-0.4032,-0.4117,-0.415,-0.4219,-0.4197,-0.4249,-0.4293,-0.4239,-0.4273,-0.4261,-0.4253,-0.4286,-0.4296,-0.4269,-0.435,-0.4317,-0.4324,-0.4337,-0.4353,-0.4366,-0.4378,-0.4224,-0.4223,-0.4223,0,0,-0.3973,-0.4015,-0.4089,-0.4125,-0.4156,-0.4191,-0.4213,-0.4227,-0.4245,-0.4243,-0.4232,-0.4224,-0.4235,-0.4232,-0.4239,-0.4268,-0.4262,-0.4292,-0.4302,-0.4311,-0.4328,-0.4346,-0.4359,-0.422,-0.422,-0.422,0,0,-0.3971,-0.4052,-0.4058,-0.411,-0.4161,-0.4208,-0.4224,-0.423,-0.4233,-0.4219,-0.4189,-0.4183,-0.4209,-0.4191,-0.4165,-0.4223,-0.418,-0.4185,-0.4233,-0.4245,-0.4255,-0.4274,-0.4116,0,0,0,0,0,-0.4019,-0.4051,-0.4056,-0.4072,-0.4144,-0.4214,-0.4221,-0.4221,-0.4196,-0.4214,-0.4195,-0.4163,-0.4175,-0.415,-0.4149,-0.4183,-0.4191,-0.4196,-0.4201,-0.427,-0.4284,-0.4295,0,0,0,0,0,0,-0.4025,-0.4044,-0.4056,-0.4107,-0.4124,-0.4211,-0.4173,-0.4174,-0.4194,-0.4189,-0.4169,-0.4162,-0.4139,-0.4148,-0.4148,-0.4181,-0.4116,-0.4193,-0.4198,-0.4202,-0.4275,-0.4286,-0.4295,0,0,0,0,0,-0.403,-0.4046,-0.4162,-0.4106,-0.412,-0.4139,-0.417,-0.4171,-0.4177,-0.4165,-0.4159,-0.4177,-0.4141,-0.4138,-0.4148,-0.4182,-0.4115,-0.4115,-0.4196,-0.42,-0.4203,-0.428,0,0,0,0,0,0,-0.4034,-0.4034,-0.4165,-0.4169,-0.4086,-0.4132,-0.414,-0.4168,-0.415,-0.4148,-0.417,-0.4167,-0.4143,-0.414,-0.4138,-0.4185,-0.4115,-0.4115,-0.4115,-0.4199,-0.4201,-0.4204,0,0,0,0,0,0,-0.4027,-0.4038,-0.4166,-0.4141,-0.4142,-0.4127,-0.4133,-0.4141,-0.4147,-0.4153,-0.4152,-0.4169,-0.4131,-0.4142,-0.414,-0.4154,-0.4115,-0.4115,-0.4115,-0.4115,-0.4201,-0.4203,0,0,0,0,0,0,-0.4031,-0.4041,-0.4139,-0.414,-0.4141,-0.4184,-0.413,-0.419,-0.4169,-0.4152,-0.4164,-0.4161,-0.4133,-0.4132,-0.4142,-0.4157,-0.4154,-0.4115,-0.4115,-0.4115,-0.4115,0,0,0,0,0,0,0,-0.4035,-0.3972,-0.4147,-0.414,-0.414,-0.4211,-0.4211,-0.4211,-0.4169,-0.4167,-0.4165,-0.4163,-0.4115,-0.4115,-0.4115,-0.4159,0,0,-0.4115,-0.4115,0,0,0,0,0,0,0,0,-0.3968,-0.3971,-0.4147,-0.4148,-0.415,-0.4211,-0.4211,-0.4211,-0.4169,-0.4167,-0.4165,-0.4163,-0.4115,-0.4115,-0.4115,0,0,0,0,0,0,0,0,0,0,0,0,0,0,0,-0.4147,-0.4148,0,-0.4211,-0.4211,-0.4211,-0.4168,-0.4167,-0.4165,-0.4164,-0.4115,-0.4115,-0.4115,0,0,0,0,0,0,0,0,0,0,0,0,0,0,0,0,0,0,0,0,0,0,0,0,0,0,0,0,0,0,0,0,0,0,0,0,0,0,0,0,0,0,0,0,0,0,0,0,0,0,0,0,0,0,0,0,0,0,0,0,0,0,0,0,0,0,0,0,0]}],[{"header":{"parameterUnit":"kt","parameterCategory":2,"dx":1,"dy":1,"la1":30.253999710083008,"la2":30.299108505249023,"lo1":-89.0895004272461,"lo2":-89.04439544677734,"nx":28,"ny":28,"refTime":"2022-09-29T21:00:00:Z","depth":"2","parameterNumber":3,"parameterNumberName":"V-component_of_CURRENTS"},"data":[-0.2041,-0.2207,-0.23,-0.2528,-0.2623,-0.2686,-0.2709,-0.2712,-0.2607,-0.2502,-0.2235,-0.1762,-0.0935,-0.038,0.0204,0.0603,0.059,0.0653,0.0539,0.0282,0.0259,0.0668,0.0612,0,0,0,0,0,-0.1973,-0.2088,-0.2244,-0.2377,-0.2476,-0.2451,-0.2477,-0.2479,-0.251,-0.2355,-0.2196,-0.1523,-0.0876,-0.0249,0.0489,0.0916,0.0883,0.1004,0.0866,0.0847,0.083,0.081,0.1012,0.1014,0.1015,0.1016,0,0,-0.1874,-0.1963,-0.2065,-0.2185,-0.2247,-0.2294,-0.2327,-0.2302,-0.2297,-0.2184,-0.1953,-0.1639,-0.1049,-0.0208,0.0261,0.0729,0.0673,0.079,0.0777,0.0764,0.0746,0.074,0.0929,0.0929,0.0929,0.0929,0.0929,0,-0.1766,-0.1785,-0.185,-0.1984,-0.2023,-0.2045,-0.2029,-0.2045,-0.1892,-0.1848,-0.1718,-0.1545,-0.0956,-0.0477,0.0132,0.0369,0.0535,0.0643,0.0547,0.0465,0.045,0.0472,0.0456,0.0587,0.0585,0.0584,0.0583,0.0583,-0.1611,-0.1676,-0.1717,-0.1774,-0.1764,-0.1778,-0.1784,-0.1651,-0.1645,-0.1457,-0.1452,-0.117,-0.0984,-0.045,-0.0027,0.0375,0.0356,0.059,0.0562,0.0454,0.0482,0.0467,0.0453,0.0564,0.0567,0.0568,0.057,0,-0.1519,-0.1515,-0.1593,-0.157,-0.155,-0.1585,-0.1511,-0.1518,-0.1392,-0.1355,-0.1318,-0.1057,-0.0798,-0.0485,-0.0192,0.0016,0.0267,0.0367,0.0315,0.0354,0.0434,0.0425,0.0584,0.0589,0.0593,0.0597,0.06,0,-0.1365,-0.1406,-0.1387,-0.1427,-0.1466,-0.1367,-0.1375,-0.1292,-0.1191,-0.117,-0.096,-0.09,-0.062,-0.0427,-0.0231,0.0051,0.0007,0.0224,0.027,0.0225,0.023,0.0133,0.013,0.0144,0.0143,0.0142,0.0141,0,-0.1237,-0.1245,-0.1311,-0.1301,-0.1248,-0.1231,-0.118,-0.1065,-0.1033,-0.0902,-0.0863,-0.0691,-0.0614,-0.0443,-0.0207,-0.0221,0.0019,0.0017,0.0213,0.0221,0.0255,0.0265,0.014,0.014,0.014,0.0139,0.0139,0,-0.1091,-0.1123,-0.1191,-0.1159,-0.1149,-0.1129,-0.1051,-0.1005,-0.0872,-0.0807,-0.0701,-0.0591,-0.0473,-0.0415,-0.0212,-0.0254,-0.0143,-0.005,-0.0043,0.0091,0.0131,0.022,0.0246,0.0058,0.0057,0.0056,0.0054,0,-0.0993,-0.1062,-0.0999,-0.1025,-0.1049,-0.0925,-0.0893,-0.0808,-0.0721,-0.0654,-0.0531,-0.0471,-0.0385,-0.0356,-0.0286,-0.0167,-0.0112,-0.0172,0.0007,0.0013,0.0105,0.0121,0.0092,0.0221,0.0039,0.004,0.0042,0,-0.0911,-0.0895,-0.0897,-0.0904,-0.0819,-0.0797,-0.0752,-0.068,-0.0657,-0.0553,-0.0514,-0.0413,-0.0348,-0.0304,-0.0233,-0.0181,-0.0133,-0.0133,-0.0128,-0.0076,-0.0013,0.0087,0.0108,-0.0113,-0.0112,-0.0111,0.0029,0,-0.0811,-0.0819,-0.0831,-0.08,-0.0759,-0.0751,-0.0654,-0.0612,-0.0545,-0.0475,-0.0406,-0.0312,-0.0239,-0.0219,-0.0166,-0.0134,-0.01,-0.0081,-0.0045,-0.0072,-0.0006,0.0003,-0.0084,-0.0082,-0.0081,-0.008,0,0,-0.0733,-0.0748,-0.068,-0.0686,-0.066,-0.0554,-0.0561,-0.0501,-0.0407,-0.0375,-0.0344,-0.0219,-0.0161,-0.0111,-0.0114,-0.0088,-0.0044,-0.008,-0.0067,-0.0066,-0.0065,-0.0004,0.0003,-0.0077,-0.0077,-0.0076,-0.0076,0,-0.0692,-0.0654,-0.0681,-0.0639,-0.0581,-0.0521,-0.0518,-0.0431,-0.0389,-0.0339,-0.0268,-0.0216,-0.014,-0.0086,-0.0052,-0.0072,-0.0007,-0.0067,-0.0108,-0.0058,-0.0059,-0.0059,0.0,0.0006,-0.0073,-0.0073,-0.0073,0,-0.0621,-0.0589,-0.059,-0.0536,-0.0489,-0.0468,-0.0395,-0.0365,-0.0342,-0.0245,-0.0203,-0.0143,-0.0071,-0.0039,-0.0022,-0.0005,0.0033,0.0011,0.0005,0.0013,0.0068,0.0066,0.0064,0.0088,0.0088,0.0088,0,0,-0.0591,-0.0594,-0.0515,-0.0519,-0.0497,-0.0414,-0.0386,-0.034,-0.0276,-0.0249,-0.0183,-0.0122,-0.0073,-0.0046,0.0005,0.003,0.008,0.0027,0.002,0.0013,0.0017,0.007,0.0068,0.0089,0.0089,0.0089,0,0,-0.0568,-0.0507,-0.0476,-0.0479,-0.0423,-0.0333,-0.0328,-0.0279,-0.0221,-0.0218,-0.0132,-0.0113,-0.0077,-0.0035,-0.0032,0.0007,0.0042,0.0043,-0.0025,-0.0033,-0.004,-0.0047,0.0024,0,0,0,0,0,-0.0494,-0.0517,-0.0491,-0.0481,-0.0401,-0.0348,-0.0333,-0.0268,-0.0242,-0.0237,-0.0171,-0.0133,-0.0019,-0.0014,0.0002,-0.0012,0.01,0.0098,0.0096,0.0016,0.0006,-0.0002,0,0,0,0,0,0,-0.049,-0.0479,-0.0489,-0.0406,-0.0387,-0.0347,-0.0294,-0.0275,-0.0242,-0.0234,-0.0145,-0.013,-0.0074,-0.0018,-0.0004,-0.0019,0.0019,0.0099,0.0097,0.0096,0.0012,0.0004,-0.0002,0,0,0,0,0,-0.0486,-0.0477,-0.0376,-0.0404,-0.0387,-0.0302,-0.0293,-0.0278,-0.0248,-0.0161,-0.0145,-0.0203,-0.0075,-0.0059,-0.001,-0.0027,0.001,0.0015,0.0098,0.0097,0.0095,0.0008,0,0,0,0,0,0,-0.0483,-0.0452,-0.037,-0.0361,-0.0403,-0.0303,-0.0288,-0.028,-0.0176,-0.016,-0.0216,-0.0211,-0.0076,-0.0064,-0.0052,-0.0034,0.0003,0.0008,0.0011,0.0097,0.0096,0.0095,0,0,0,0,0,0,-0.0456,-0.0445,-0.0365,-0.0368,-0.0358,-0.0303,-0.0291,-0.0243,-0.0176,-0.0235,-0.0228,-0.0215,-0.0097,-0.0067,-0.0058,0.0015,-0.0003,0.0002,0.0005,0.0007,0.0096,0.0095,0,0,0,0,0,0,-0.0449,-0.044,-0.0369,-0.0362,-0.0354,-0.0246,-0.0259,-0.0182,-0.0177,-0.0241,-0.0175,-0.0174,-0.0102,-0.0091,-0.0062,0.0006,0.0013,-0.0002,0.0001,0.0003,0.0005,0,0,0,0,0,0,0,-0.0444,-0.0531,-0.0426,-0.0358,-0.035,-0.0278,-0.0275,-0.0273,-0.0177,-0.0176,-0.0175,-0.0175,-0.0029,-0.0024,-0.0019,-0.0,0,0,-0.0003,-0.0001,0,0,0,0,0,0,0,0,-0.0532,-0.0531,-0.0425,-0.0424,-0.0422,-0.0278,-0.0275,-0.0273,-0.0177,-0.0176,-0.0175,-0.0175,-0.0028,-0.0024,-0.002,0,0,0,0,0,0,0,0,0,0,0,0,0,0,0,-0.0425,-0.0424,0,-0.0277,-0.0276,-0.0274,-0.0177,-0.0176,-0.0176,-0.0175,-0.0027,-0.0023,-0.002,0,0,0,0,0,0,0,0,0,0,0,0,0,0,0,0,0,0,0,0,0,0,0,0,0,0,0,0,0,0,0,0,0,0,0,0,0,0,0,0,0,0,0,0,0,0,0,0,0,0,0,0,0,0,0,0,0,0,0,0,0,0,0,0,0,0,0,0,0]}]],[[{"header":{"parameterUnit":"kt","parameterCategory":2,"dx":1,"dy":1,"la1":30.253999710083008,"la2":30.299108505249023,"lo1":-89.0895004272461,"lo2":-89.04439544677734,"nx":28,"ny":28,"refTime":"2022-09-29T21:00:00:Z","depth":"4","parameterNumber":2,"parameterNumberName":"U-component_of_CURRENTS"},"data":[-0.1476,-0.1586,-0.1698,-0.1791,-0.1923,-0.2182,-0.2392,-0.2639,-0.2656,-0.2969,-0.2992,-0.3209,-0.3261,-0.344,-0.3323,-0.3349,-0.3301,-0.3631,-0.3622,-0.368,-0.3704,-0.3725,-0.3631,0,0,0,0,0,-0.1591,-0.1673,-0.1805,-0.2027,-0.226,-0.2427,-0.2757,-0.2948,-0.3278,-0.3237,-0.3388,-0.3435,-0.344,-0.3534,-0.3408,-0.3669,-0.3685,-0.3508,-0.3542,-0.3695,-0.3721,-0.3621,0,0,0,0,0,0,-0.1792,-0.1856,-0.2053,-0.226,-0.249,-0.2662,-0.2852,-0.3033,-0.3198,-0.3538,-0.3548,-0.372,-0.3904,-0.382,-0.3819,-0.3761,-0.3685,-0.3548,-0.358,-0.3606,-0.35,-0.3394,-0.3198,0,0,0,0,0,-0.1984,-0.2126,-0.2256,-0.2505,-0.2692,-0.2917,-0.3171,-0.3246,-0.3549,-0.378,-0.3842,-0.3871,-0.3938,-0.3942,-0.3943,-0.3899,-0.4051,-0.3972,-0.3983,-0.3898,-0.3847,-0.382,-0.3828,-0.3821,-0.3824,-0.3826,-0.3827,0,-0.224,-0.228,-0.2627,-0.2721,-0.2864,-0.3097,-0.3253,-0.355,-0.366,-0.3947,-0.3984,-0.4145,-0.4229,-0.4105,-0.4196,-0.4138,-0.4098,-0.4042,-0.3951,-0.3889,-0.3855,-0.3857,-0.3857,-0.3848,-0.3847,-0.3845,-0.3843,0,-0.237,-0.2534,-0.267,-0.2962,-0.3085,-0.3191,-0.3512,-0.3616,-0.3819,-0.3966,-0.4025,-0.4214,-0.4267,-0.4339,-0.4383,-0.4257,-0.421,-0.415,-0.4367,-0.434,-0.3899,-0.3891,-0.3883,-0.3875,-0.3869,-0.3863,-0.3859,0,-0.2594,-0.2678,-0.2966,-0.2994,-0.3172,-0.334,-0.351,-0.3647,-0.3843,-0.3953,-0.4097,-0.4175,-0.4274,-0.4336,-0.4319,-0.4229,-0.4369,-0.4102,-0.4064,-0.426,-0.4251,-0.4237,-0.4224,-0.4345,-0.4345,-0.4345,-0.4344,0,-0.2673,-0.2904,-0.2999,-0.3065,-0.3284,-0.3384,-0.3516,-0.369,-0.3794,-0.3969,-0.4054,-0.4162,-0.4235,-0.4255,-0.4279,-0.4253,-0.4341,-0.4293,-0.4085,-0.4069,-0.4231,-0.4219,-0.4344,-0.4344,-0.4344,-0.4344,-0.4344,0,-0.2813,-0.2911,-0.3034,-0.3226,-0.3272,-0.3377,-0.355,-0.3659,-0.3825,-0.3902,-0.4008,-0.4065,-0.4165,-0.4132,-0.421,-0.4185,-0.4183,-0.4186,-0.4187,-0.3957,-0.3875,-0.4024,-0.4148,-0.4146,-0.4145,-0.4144,-0.4143,0,-0.2814,-0.2939,-0.3032,-0.3172,-0.324,-0.3356,-0.3464,-0.3581,-0.3682,-0.38,-0.3869,-0.3976,-0.3966,-0.4016,-0.4059,-0.4087,-0.412,-0.408,-0.4083,-0.4083,-0.3856,-0.3919,-0.4095,-0.4124,-0.4126,-0.4128,-0.4129,0,-0.278,-0.2953,-0.2972,-0.3042,-0.3184,-0.3238,-0.3365,-0.3484,-0.3572,-0.3674,-0.378,-0.3888,-0.3913,-0.3951,-0.3972,-0.4012,-0.4087,-0.3987,-0.3986,-0.3976,-0.415,-0.3923,-0.3912,-0.4082,-0.4085,-0.4087,-0.4117,0,-0.2824,-0.2907,-0.2946,-0.3053,-0.3122,-0.3201,-0.3292,-0.3377,-0.3449,-0.3509,-0.3642,-0.3695,-0.3782,-0.3815,-0.3822,-0.3928,-0.3901,-0.388,-0.3828,-0.3915,-0.3914,-0.3925,-0.3779,-0.3777,-0.3776,-0.3775,0,0,-0.2769,-0.2843,-0.2894,-0.2961,-0.3022,-0.3088,-0.3162,-0.323,-0.3341,-0.3394,-0.3402,-0.3562,-0.3603,-0.3708,-0.3751,-0.3764,-0.3768,-0.3763,-0.3874,-0.3885,-0.3895,-0.3899,-0.391,-0.3773,-0.3772,-0.3772,-0.3771,0,-0.2759,-0.2817,-0.2868,-0.2928,-0.3019,-0.306,-0.3095,-0.3183,-0.3241,-0.3346,-0.3372,-0.3452,-0.3551,-0.3594,-0.3625,-0.3737,-0.3718,-0.3763,-0.3826,-0.3861,-0.3874,-0.3885,-0.3892,-0.3903,-0.3768,-0.3768,-0.3769,0,-0.2731,-0.2777,-0.2809,-0.2893,-0.2945,-0.3014,-0.302,-0.3102,-0.3172,-0.3178,-0.3302,-0.3342,-0.3388,-0.3484,-0.3533,-0.3507,-0.3657,-0.3622,-0.363,-0.3638,-0.3671,-0.3686,-0.37,-0.352,-0.3519,-0.3518,0,0,-0.2722,-0.2774,-0.2839,-0.2892,-0.2927,-0.299,-0.3033,-0.3075,-0.3137,-0.3174,-0.3231,-0.3294,-0.3355,-0.3399,-0.3453,-0.3537,-0.3531,-0.3592,-0.3603,-0.3613,-0.3626,-0.3662,-0.3677,-0.3515,-0.3515,-0.3515,0,0,-0.2712,-0.2784,-0.2809,-0.2871,-0.2932,-0.2986,-0.3036,-0.307,-0.3147,-0.317,-0.3198,-0.3215,-0.3323,-0.3335,-0.3291,-0.3448,-0.3399,-0.3409,-0.3441,-0.3456,-0.3468,-0.3469,-0.3271,0,0,0,0,0,-0.273,-0.2771,-0.2793,-0.2811,-0.2905,-0.2971,-0.2986,-0.3042,-0.3065,-0.3106,-0.3162,-0.3162,-0.332,-0.3281,-0.3296,-0.3362,-0.3475,-0.3482,-0.3489,-0.355,-0.3566,-0.3579,0,0,0,0,0,0,-0.2737,-0.2756,-0.2792,-0.2843,-0.2866,-0.2969,-0.2971,-0.2987,-0.3062,-0.307,-0.315,-0.3162,-0.3174,-0.3274,-0.3287,-0.3351,-0.3267,-0.3478,-0.3484,-0.3489,-0.3556,-0.3568,-0.3579,0,0,0,0,0,-0.2743,-0.2759,-0.2898,-0.2843,-0.2863,-0.2943,-0.2971,-0.2985,-0.3054,-0.3093,-0.3109,-0.3102,-0.3172,-0.3188,-0.3282,-0.3345,-0.3258,-0.3263,-0.3482,-0.3486,-0.3491,-0.3562,0,0,0,0,0,0,-0.2748,-0.2767,-0.2903,-0.2911,-0.2847,-0.294,-0.2957,-0.2983,-0.3075,-0.3091,-0.3041,-0.3045,-0.3171,-0.3183,-0.3195,-0.3344,-0.3251,-0.3256,-0.3259,-0.3485,-0.3489,-0.3492,0,0,0,0,0,0,-0.276,-0.2773,-0.2907,-0.2908,-0.2917,-0.2938,-0.2952,-0.3,-0.3076,-0.3017,-0.3023,-0.3041,-0.3159,-0.318,-0.3189,-0.3261,-0.3245,-0.325,-0.3253,-0.3255,-0.3488,-0.3491,0,0,0,0,0,0,-0.2767,-0.2779,-0.2906,-0.2913,-0.292,-0.3016,-0.2981,-0.3079,-0.3069,-0.3012,-0.3071,-0.3072,-0.3155,-0.3166,-0.3185,-0.3252,-0.3259,-0.3246,-0.3249,-0.3251,-0.3252,0,0,0,0,0,0,0,-0.2772,-0.2678,-0.2857,-0.2917,-0.2923,-0.2989,-0.2991,-0.2993,-0.307,-0.307,-0.3071,-0.3072,-0.3219,-0.3224,-0.3229,-0.3245,0,0,-0.3245,-0.3247,0,0,0,0,0,0,0,0,-0.2674,-0.2677,-0.2857,-0.2859,-0.2861,-0.2989,-0.2991,-0.2992,-0.307,-0.307,-0.3071,-0.3072,-0.322,-0.3224,-0.3229,0,0,0,0,0,0,0,0,0,0,0,0,0,0,0,-0.2857,-0.2859,0,-0.2989,-0.2991,-0.2992,-0.307,-0.307,-0.3071,-0.3071,-0.3221,-0.3225,-0.3228,0,0,0,0,0,0,0,0,0,0,0,0,0,0,0,0,0,0,0,0,0,0,0,0,0,0,0,0,0,0,0,0,0,0,0,0,0,0,0,0,0,0,0,0,0,0,0,0,0,0,0,0,0,0,0,0,0,0,0,0,0,0,0,0,0,0,0,0,0]}],[{"header":{"parameterUnit":"kt","parameterCategory":2,"dx":1,"dy":1,"la1":30.253999710083008,"la2":30.299108505249023,"lo1":-89.0895004272461,"lo2":-89.04439544677734,"nx":28,"ny":28,"refTime":"2022-09-29T21:00:00:Z","depth":"4","parameterNumber":3,"parameterNumberName":"V-component_of_CURRENTS"},"data":[-0.0293,-0.0487,-0.0704,-0.1001,-0.1212,-0.1454,-0.156,-0.1569,-0.1501,-0.1422,-0.1198,-0.104,-0.063,-0.0829,-0.0216,-0.0131,-0.0037,0.0417,0.0423,0.0544,0.0538,0.0532,0.0469,0,0,0,0,0,-0.0325,-0.0501,-0.0731,-0.1009,-0.124,-0.1374,-0.1497,-0.1527,-0.1503,-0.1424,-0.1337,-0.11,-0.0675,-0.0468,-0.0219,-0.0098,0.0219,0.0203,0.0297,0.054,0.0533,0.0474,0,0,0,0,0,0,-0.0433,-0.0546,-0.0754,-0.0975,-0.1177,-0.1353,-0.1409,-0.1431,-0.1435,-0.1302,-0.126,-0.0957,-0.0777,-0.0371,-0.0108,0.0146,0.0184,0.0252,0.0261,0.0258,0.0169,0.0109,0.0143,0,0,0,0,0,-0.0493,-0.0595,-0.0713,-0.097,-0.1101,-0.1246,-0.1335,-0.1363,-0.1326,-0.127,-0.1125,-0.0888,-0.0645,-0.032,-0.0033,0.0205,0.0394,0.0475,0.0471,0.0431,0.0411,0.0432,0.0422,0.0507,0.0506,0.0506,0.0506,0,-0.0563,-0.0618,-0.083,-0.0929,-0.098,-0.1082,-0.1153,-0.1139,-0.1155,-0.105,-0.1043,-0.0839,-0.0684,-0.0298,-0.0036,0.0304,0.0345,0.0456,0.0413,0.0399,0.0424,0.0415,0.0406,0.05,0.05,0.0501,0.0501,0,-0.0592,-0.066,-0.0762,-0.0863,-0.0907,-0.0963,-0.1021,-0.1049,-0.0979,-0.0969,-0.0945,-0.0744,-0.0538,-0.0286,-0.0044,0.0105,0.0302,0.0372,0.0273,0.0301,0.04,0.0393,0.0491,0.0493,0.0495,0.0496,0.0497,0,-0.0612,-0.0659,-0.0768,-0.0795,-0.0889,-0.0852,-0.0901,-0.0861,-0.0814,-0.0814,-0.0651,-0.0607,-0.0382,-0.0225,-0.0058,0.0149,0.0139,0.027,0.0305,0.0212,0.0207,0.0251,0.0249,0.0255,0.0254,0.0253,0.0252,0,-0.0574,-0.0651,-0.0721,-0.0728,-0.0745,-0.076,-0.0756,-0.0685,-0.0677,-0.0588,-0.0566,-0.0431,-0.0374,-0.0231,-0.0034,-0.0044,0.0151,0.0154,0.0271,0.0275,0.0245,0.0245,0.0251,0.0251,0.0251,0.0251,0.025,0,-0.0528,-0.0583,-0.0654,-0.0679,-0.0681,-0.0689,-0.0654,-0.0634,-0.0544,-0.0501,-0.0425,-0.0339,-0.0249,-0.0198,-0.0033,-0.0065,0.0027,0.0104,0.011,0.017,0.0207,0.0212,0.0199,0.0198,0.0197,0.0196,0.0195,0,-0.0478,-0.0551,-0.0525,-0.057,-0.0595,-0.0521,-0.0511,-0.0459,-0.0401,-0.0361,-0.0267,-0.0232,-0.0159,-0.0141,-0.0084,0.0014,0.0057,0.0011,0.0159,0.0163,0.0192,0.019,0.0066,0.0182,0.0183,0.0185,0.0185,0,-0.0412,-0.0435,-0.0438,-0.046,-0.0412,-0.0405,-0.0384,-0.0344,-0.0337,-0.0265,-0.0246,-0.0175,-0.0123,-0.0093,-0.0036,0.0005,0.0042,0.0047,0.0051,0.0093,0.0139,0.0171,0.0182,0.0062,0.0063,0.0063,0.0176,0,-0.0355,-0.0374,-0.0387,-0.038,-0.0358,-0.0362,-0.03,-0.0275,-0.0232,-0.0187,-0.0145,-0.0075,-0.0026,-0.001,0.003,0.005,0.0079,0.0097,0.0127,0.0103,0.0157,0.0164,0.0101,0.0102,0.0103,0.0104,0,0,-0.0289,-0.0313,-0.0267,-0.0281,-0.0271,-0.0198,-0.0214,-0.0176,-0.0117,-0.0099,-0.0075,0.0007,0.005,0.0081,0.0076,0.0097,0.0132,0.01,0.0109,0.0109,0.011,0.0159,0.0165,0.0106,0.0107,0.0107,0.0107,0,-0.0259,-0.0238,-0.0265,-0.0242,-0.0211,-0.0173,-0.0173,-0.0119,-0.0093,-0.0066,-0.0014,0.0022,0.007,0.0108,0.0132,0.0111,0.0162,0.0114,0.0077,0.0117,0.0116,0.0115,0.0163,0.0167,0.011,0.011,0.011,0,-0.0204,-0.0187,-0.0192,-0.0164,-0.0137,-0.0131,-0.0077,-0.0063,-0.0055,0.0018,0.0038,0.0082,0.0132,0.015,0.016,0.0174,0.0195,0.0179,0.0174,0.0177,0.0221,0.0219,0.0217,0.0243,0.0243,0.0244,0,0,-0.0182,-0.0191,-0.0143,-0.0152,-0.014,-0.0088,-0.0073,-0.0044,-0.0002,0.0014,0.0059,0.01,0.0133,0.0151,0.0184,0.0198,0.0238,0.0193,0.0187,0.0181,0.018,0.0222,0.022,0.0244,0.0244,0.0244,0,0,-0.0165,-0.0131,-0.0112,-0.0121,-0.0088,-0.0032,-0.0034,-0.0001,0.0035,0.0037,0.0098,0.0111,0.0131,0.0163,0.0166,0.0186,0.0215,0.0216,0.016,0.0153,0.0147,0.0138,0.0206,0,0,0,0,0,-0.0116,-0.0137,-0.0121,-0.0116,-0.0072,-0.0042,-0.0033,0.0007,0.0026,0.0026,0.0071,0.0099,0.0175,0.0179,0.019,0.0175,0.0253,0.0251,0.025,0.0183,0.0175,0.0168,0,0,0,0,0,0,-0.0114,-0.0109,-0.012,-0.0068,-0.0057,-0.0041,-0.0003,0.0008,0.0026,0.0032,0.009,0.0101,0.014,0.0177,0.0186,0.017,0.0204,0.0252,0.0251,0.025,0.018,0.0173,0.0168,0,0,0,0,0,-0.0112,-0.0108,-0.0053,-0.0067,-0.0057,-0.0006,-0.0003,0.0007,0.0024,0.0082,0.0093,0.0052,0.0139,0.015,0.0182,0.0165,0.0198,0.0201,0.0251,0.025,0.025,0.0177,0,0,0,0,0,0,-0.011,-0.0091,-0.005,-0.0045,-0.0064,-0.0006,0.0003,0.0006,0.0074,0.0084,0.0045,0.0049,0.0138,0.0147,0.0155,0.016,0.0193,0.0196,0.0198,0.0251,0.025,0.0249,0,0,0,0,0,0,-0.0093,-0.0088,-0.0047,-0.0046,-0.0041,-0.0006,0.0002,0.0033,0.0074,0.0034,0.0039,0.0046,0.0127,0.0144,0.0151,0.0198,0.0189,0.0192,0.0194,0.0196,0.025,0.0249,0,0,0,0,0,0,-0.009,-0.0085,-0.0047,-0.0043,-0.0038,0.0025,0.0024,0.0067,0.0069,0.0031,0.0071,0.0072,0.0124,0.0131,0.0148,0.0192,0.0196,0.0189,0.0191,0.0193,0.0194,0,0,0,0,0,0,0,-0.0087,-0.0136,-0.0083,-0.004,-0.0036,0.0003,0.0005,0.0007,0.0069,0.007,0.0071,0.0071,0.0171,0.0175,0.0178,0.0187,0,0,0.0189,0.019,0,0,0,0,0,0,0,0,-0.0136,-0.0136,-0.0083,-0.0082,-0.0081,0.0004,0.0005,0.0006,0.0069,0.007,0.0071,0.0071,0.0172,0.0175,0.0178,0,0,0,0,0,0,0,0,0,0,0,0,0,0,0,-0.0083,-0.0082,0,0.0004,0.0005,0.0006,0.007,0.007,0.007,0.0071,0.0173,0.0175,0.0178,0,0,0,0,0,0,0,0,0,0,0,0,0,0,0,0,0,0,0,0,0,0,0,0,0,0,0,0,0,0,0,0,0,0,0,0,0,0,0,0,0,0,0,0,0,0,0,0,0,0,0,0,0,0,0,0,0,0,0,0,0,0,0,0,0,0,0,0,0]}]]]